Flag Weather past 2 weeks in Saskatoon, Saskatchewan, Canada

Now
5 °F

Scattered clouds.


Feels Like: -7 °F
Forecast: N/A
Wind: 7 mph from Southeast

Location: Saskatoon Weather Station

Current Time: Nov 26, 2014 at 5:14:08 PM

Latest Report: Nov 26, 2014 at 4:00 PM


Visibility: 15 mi

Pressure: 30.54 "Hg

Humidity: 72%

Dew point: -2 °F

Location of SaskatoonLocation

Historic Weather in Saskatoon — Graph

°F

Saskatoon temperature yesterday

Maximum temperature yesterday: 19 °F (at 12:00 AM)
Minimum temperature yesterday: 3 °F (at 9:00 PM)
Average temperature yesterday: 11 °F

Past Weeks' High & Low Weather Summary

 TemperatureHumidityPressure
High37 °F (Nov 21, 1:00 PM)100% (Nov 21, 2:00 PM)30.86 "Hg (Nov 21, 2:00 PM)
Low-6 °F (Nov 14, 6:00 AM)58% (Nov 16, 11:00 AM)29.21 "Hg (Nov 22, 3:00 PM)
Average14 °F80%30.17 "Hg
* Reported Nov 11 4:00 PM — Nov 26 4:00 PM, Saskatoon, Weather by CustomWeather, © 2014

Note: Actual official high and low records may vary slightly from our data, if they occured in-between our weather recording intervals... More about our weather records

Advertising

Saskatoon weather history for previous 24 hours

 ConditionsComfort  
Time TempWeatherWind HumidityBarometerVisibility
4:00 PM
Nov 26
5 °FScattered clouds.7 mph72%30.54 "Hg15 mi
3:00 PM7 °FBroken clouds.8 mph72%30.53 "Hg15 mi
2:00 PM7 °FScattered clouds.10 mph66%30.53 "Hg15 mi
1:00 PM5 °FPartly sunny.9 mph72%30.53 "Hg15 mi
12:00 PM5 °FLight snow. Partly sunny.9 mph78%30.56 "Hg15 mi
11:00 AM5 °FLight snow. Partly sunny.6 mph78%30.56 "Hg8 mi
10:46 AM5 °FLight snow. Partly sunny.5 mph78%30.56 "Hg8 mi
10:00 AM3 °FSnow flurries. Partly sunny.5 mph85%30.55 "Hg10 mi
9:00 AM1 °FSnow flurries. Partly sunny.3 mph85%30.55 "Hg8 mi
8:00 AM1 °FLight snow. Overcast.6 mph78%30.53 "Hg15 mi
7:00 AM1 °FLight snow. Overcast.9 mph78%30.52 "Hg15 mi
6:00 AM1 °FLight snow. Overcast.3 mph85%30.52 "Hg15 mi
5:00 AM1 °FLight snow. Overcast.9 mph85%30.51 "Hg15 mi
4:00 AM1 °FLight snow. Overcast.8 mph85%30.51 "Hg15 mi
3:00 AM3 °FLight snow. Overcast.5 mph85%30.49 "Hg15 mi
2:00 AM3 °FLight snow. Overcast.3 mph85%30.48 "Hg15 mi
1:00 AM3 °FLight snow. Overcast.6 mph85%30.46 "Hg15 mi
12:00 AM3 °FLight snow. Overcast.No wind85%30.45 "Hg15 mi
11:00 PM
Nov 25
3 °FLight snow. Overcast.2 mph85%30.44 "Hg15 mi
10:00 PM3 °FLight snow. Mostly cloudy.No wind85%30.41 "Hg15 mi
9:00 PM3 °FLight snow. Overcast.3 mph85%30.40 "Hg15 mi
8:00 PM5 °FLight snow. Overcast.2 mph85%30.37 "Hg15 mi
7:00 PM5 °FOvercast.5 mph78%30.36 "Hg15 mi
6:00 PM5 °FLight snow. Passing clouds.6 mph85%30.35 "Hg15 mi
5:00 PM7 °FLight snow. Mostly cloudy.9 mph78%30.32 "Hg2 mi
Weather by CustomWeather, © 2014

See weather overviewHow to use our weather pages